Location: Cartignies
(50.0929°N, 3.8447°E)
Time: 15:14:40
(UTC+00:00)

IRS-P3 - Pass Details

Date: 12 January 2026
Orbit: 811 x 815 km, 99.0° (Epoch: 16 February)

Event Time Altitude Azimuth Distance (km) Brightness Sun altitude
Rises 17:10:05 0° 151° (SSE) 3,321 7.2 -9.8°
Reaches altitude 10° 17:12:26 10° 148° (SSE) 2,394 6.5 -10.2°
Maximum altitude 17:17:38 62° 69° (ENE) 917 4.1 -11.0°
Drops below altitude 10° 17:22:53 10° 350° (N) 2,411 6.5 -11.7°
Sets 17:25:15 0° 347° (NNW) 3,348 7.2 -12.1°
